Miscellaneous Local Product
Issued by NWS Hastings, NE

Home | Current Version | Previous Version | Graphics & Text | Print | Product List | Glossary On
Versions: 1 2 3 4 5 6 7 8 9 10 11 12 13 14 15 16 17 18 19 20 21 22 23 24 25 26 27 28 29 30 31 32 33 34 35 36 37 38 39 40 41 42 43 44 45 46 47 48 49 50
393
AXUS43 KGID 261002
MISGRI

GID CWA HOURLY WEATHER ROUNDUP
NATIONAL WEATHER SERVICE HASTINGS NE
500 AM CDT MON SEP 26 2016

NOTE: "FAIR" INDICATES FEW OR NO CLOUDS BELOW 12,000 FEET WITH NO
SIGNIFICANT WEATHER AND/OR OBSTRUCTIONS TO VISIBILITY.

...SOUTH CENTRAL NEBRASKA...

CITY           SKY/WX    TMP DP  RH WIND       PRES   REMARKS
GRAND ISLAND   CLEAR     41  35  79 W8        30.30S
HASTINGS       CLEAR     43  33  68 W6        30.31F
KEARNEY        CLEAR     43  30  61 W5        30.32S
ORD            LGT RAIN  36  31  82 N5        30.29S WCI  32
YORK           CLEAR     43  37  81 W9        30.28S
AURORA         CLEAR     42  38  89 W5        30.29S
LEXINGTON      CLEAR     37  32  84 NW8       30.34S WCI  30
HOLDREGE       CLEAR     41  32  70 W5        30.34R
HEBRON         CLEAR     42  38  84 CALM      30.29S

...NEBRASKA PANHANDLE...

CITY           SKY/WX    TMP DP  RH WIND       PRES   REMARKS
CHADRON        CLEAR     40  33  76 SW5       30.32F
ALLIANCE       CLEAR     32  30  92 CALM      30.35F
SCOTTSBLUFF    CLEAR     38  35  89 NW3       30.36F
SIDNEY         FLURRIES  36  33  89 W9        30.39F WCI  29

...WESTERN AND NORTH CENTRAL NEBRASKA...

CITY           SKY/WX    TMP DP  RH WIND       PRES   REMARKS
VALENTINE      CLEAR     40  31  70 W8        30.29F WCI  34
AINSWORTH      CLEAR     42  36  78 W7        30.29S
ONEILL         CLEAR     43  33  67 W7        30.25F
BROKEN BOW     CLEAR     35  31  85 SW3       30.32S
IMPERIAL       CLEAR     38  33  82 W3        30.37F
NORTH PLATTE   CLEAR     36  30  79 W3        30.36F
MCCOOK         CLEAR     37  33  85 SW5       30.36S WCI  33

...EASTERN NEBRASKA...

CITY           SKY/WX    TMP DP  RH WIND       PRES   REMARKS
NORFOLK        CLEAR     45  33  63 W9        30.23S
SO SIOUX CITY  CLEAR     48  38  68 W7        30.19R
TEKAMAH        CLEAR     48  38  68 W8        30.20S
COLUMBUS       CLEAR    N/A N/A N/A W7        30.25S
ALBION         CLEAR     37  34  89 CALM      30.27S
OMAHA EPPLEY   CLEAR     49  39  68 NW3       30.22R
OFFUTT AFB     CLEAR     43  41  93 CALM      30.21S
MILLARD        CLEAR     48  40  74 CALM      30.23R
LINCOLN        CLEAR     49  39  68 W3        30.27R
NEBRASKA CITY  CLEAR     49  31  50 W6        30.24R
BEATRICE       CLEAR     44  40  86 CALM      30.27S
FALLS CITY     CLEAR     47  43  86 NW6       30.23S

...NORTHERN KANSAS...

CITY           SKY/WX    TMP DP  RH WIND       PRES   REMARKS
GOODLAND       CLEAR     42  34  73 SW8       30.38S
HILL CITY      CLEAR     40  34  79 W5        30.36S
HAYS           CLEAR     43  28  56 NW7       30.34S
RUSSELL        CLEAR     46  36  68 NW7       30.32S
CONCORDIA      CLEAR     47  40  76 W9        30.30R
SALINA         CLEAR     49  41  74 CALM      30.31R HAZE
TOPEKA         CLEAR     50  44  80 W3        30.25S



USA.gov is the U.S. government's official web portal to all federal, state and local government web resources and services.